"startDT [UTC]","vpos","CH4 [ppm]","stdev(CH4) [ppm]","CO2 [ppm]","stdev(CO2) [ppm]","H2O_reported [%]","stdev(H2O_reported)","CavityPressure [torr]","CavityTemp [C]","OutletValve","CH4_dry [ppm]","CO2_dry [ppm]","DasTemp [C]","EtalonTemp [C]","WarmBoxTemp [C]","MPVPosition","T_ECpre [C]","T_EC1 [C]","T_EC2 [C]","p_inlet [hPa]","p_in [hPa]","p_out [hPa]","T_inlet [C]","RH_inlet [%]","dwpt_inlet [C]","T_vent [C]","RH_vent [%]","dwpt_vent [C]","flow_vent [l min-1]","flow_inlet [l min-1]","dwpt_sample [C]","T_room [C]"
2016-06-27 00:00:00,0.0,1.89367,0.00039,395.026,0.106,1.0723,0.0109,139.999,45.000,31865.68114,1.91434,400.300,36.438,45.069,45.000,0.00,0.09,-272.77,-272.84,-17,535,-937,25.4,25.1,4.0,25.0,26.0,4.2,5.73,1.87,2.6,29.5
2016-06-27 00:01:00,0.0,1.89345,0.00026,394.938,0.118,1.0847,0.0099,140.001,45.000,31864.16200,1.91439,400.273,36.438,45.069,45.000,0.00,0.09,-272.78,-272.84,-15,535,-936,25.4,25.3,4.1,25.0,26.4,4.4,5.73,1.78,2.7,29.5
2016-06-27 00:02:00,0.0,1.89358,0.00025,395.127,0.064,1.0667,0.0074,140.000,45.000,31865.05026,1.91415,400.375,36.440,45.069,45.000,0.00,0.09,-272.78,-272.84,-16,535,-937,25.4,24.9,3.9,25.0,26.1,4.2,5.73,1.76,2.7,29.5
2016-06-27 00:03:00,0.0,1.89323,0.00040,395.187,0.097,1.0611,0.0137,139.999,45.000,31866.04720,1.91370,400.405,36.458,45.070,45.000,0.00,0.09,-272.78,-272.83,-15,535,-937,25.4,24.7,3.8,25.0,25.8,4.1,5.73,1.88,2.7,29.6
2016-06-27 00:04:00,0.0,1.89390,0.00045,395.393,0.051,1.0386,0.0077,139.999,45.000,31862.58967,1.91391,400.499,36.475,45.070,45.000,0.00,0.09,-272.77,-272.84,-17,534,-936,25.4,24.2,3.5,25.0,25.4,3.8,5.73,1.67,2.7,29.5
2016-06-27 00:05:00,0.0,1.89412,0.00043,395.305,0.049,1.0397,0.0066,140.000,45.000,31864.20393,1.91414,400.417,36.450,45.069,45.000,0.00,0.09,-272.79,-272.84,-15,535,-936,25.4,24.3,3.5,25.1,25.2,3.8,5.73,1.95,2.7,29.5
2016-06-27 00:06:00,0.0,1.89361,0.00041,395.144,0.071,1.0585,0.0088,139.999,45.000,31866.53515,1.91401,400.350,36.448,45.069,45.000,0.00,0.09,-272.77,-272.84,-17,535,-937,25.4,24.8,3.8,25.1,25.6,4.0,5.73,1.63,2.7,29.5
2016-06-27 00:07:00,0.0,1.89402,0.00032,395.238,0.172,1.0536,0.0184,139.999,45.000,31865.91555,1.91435,400.419,36.444,45.069,45.000,0.00,0.09,-272.78,-272.84,-15,535,-936,25.4,24.5,3.7,25.1,25.7,4.1,5.73,1.96,2.7,29.6
2016-06-27 00:08:00,0.0,1.89367,0.00038,395.264,0.114,1.0508,0.0118,139.999,45.000,31867.55323,1.91393,400.431,36.440,45.070,45.000,0.00,0.09,-272.78,-272.84,-16,534,-936,25.4,24.5,3.7,25.1,25.5,3.9,5.73,1.65,2.7,29.6
2016-06-27 00:09:00,0.0,1.89378,0.00038,395.313,0.105,1.0465,0.0120,139.997,45.000,31868.06026,1.91394,400.459,36.456,45.070,45.000,0.00,0.09,-272.78,-272.85,-15,535,-937,25.4,24.4,3.6,25.1,25.3,3.8,5.73,1.90,2.7,29.6
2016-06-27 00:10:00,0.0,1.89381,0.00037,395.168,0.070,1.0629,0.0076,140.001,45.000,31868.03589,1.91432,400.396,36.474,45.070,45.000,0.00,0.09,-272.77,-272.83,-16,534,-937,25.4,24.8,3.9,25.1,25.7,4.1,5.73,1.74,2.7,29.6
2016-06-27 00:11:00,0.0,1.89335,0.00034,395.040,0.151,1.0737,0.0120,139.998,45.000,31867.59045,1.91406,400.323,36.497,45.070,45.000,0.00,0.09,-272.78,-272.84,-15,535,-937,25.4,25.1,4.0,25.1,26.0,4.2,5.73,1.79,2.7,29.6
2016-06-27 00:12:00,0.0,1.89349,0.00040,395.099,0.125,1.0715,0.0139,140.000,45.000,31869.28689,1.91415,400.368,36.496,45.069,45.000,0.00,0.09,-272.78,-272.85,-16,535,-937,25.4,24.9,3.9,25.1,26.2,4.3,5.73,1.86,2.7,29.6
2016-06-27 00:13:00,0.0,1.89430,0.00039,395.100,0.084,1.0707,0.0083,140.002,45.000,31871.53253,1.91495,400.367,36.497,45.069,45.000,0.00,0.09,-272.77,-272.84,-15,535,-937,25.4,25.0,4.0,25.1,26.0,4.2,5.73,1.68,2.7,29.6
2016-06-27 00:14:00,0.0,1.89372,0.00064,394.912,0.101,1.0899,0.0093,139.999,45.000,31870.84228,1.91473,400.275,36.500,45.069,45.000,0.00,0.09,-272.78,-272.83,-16,534,-937,25.4,25.5,4.3,25.1,26.4,4.4,5.73,1.94,2.7,29.6
2016-06-27 00:15:00,0.0,1.89502,0.00054,395.018,0.102,1.0766,0.0131,139.999,45.000,31871.04764,1.91581,400.314,36.500,45.069,45.000,0.00,0.09,-272.78,-272.85,-15,535,-937,25.4,25.1,4.0,25.1,26.3,4.4,5.73,1.63,2.7,29.6
2016-06-27 00:16:00,0.0,1.89454,0.00044,395.078,0.075,1.0685,0.0068,140.000,45.000,31872.11852,1.91519,400.333,36.497,45.069,45.000,0.00,0.09,-272.79,-272.84,-16,535,-937,25.4,24.9,3.9,25.1,26.0,4.2,5.73,1.97,2.7,29.6
2016-06-27 00:17:00,0.0,1.89462,0.00038,395.067,0.079,1.0713,0.0091,139.997,45.000,31871.33462,1.91529,400.338,36.497,45.069,45.000,0.00,0.09,-272.77,-272.83,-15,535,-937,25.4,25.0,4.0,25.1,26.0,4.2,5.73,1.64,2.7,29.6
2016-06-27 00:18:00,0.0,1.89536,0.00050,395.100,0.081,1.0716,0.0070,140.000,45.000,31872.02394,1.91601,400.371,36.500,45.069,45.000,0.00,0.09,-272.79,-272.84,-16,535,-937,25.4,25.0,3.9,25.1,26.1,4.3,5.73,1.93,2.7,29.6
2016-06-27 00:19:00,0.0,1.89499,0.00053,395.263,0.081,1.0575,0.0065,140.000,45.000,31873.04605,1.91545,400.461,36.504,45.069,45.000,0.00,0.09,-272.78,-272.83,-15,535,-937,25.4,24.6,3.8,25.1,25.8,4.1,5.73,1.69,2.7,29.6
2016-06-27 00:20:00,0.0,1.89454,0.00046,395.254,0.088,1.0602,0.0097,140.000,45.000,31874.56704,1.91495,400.470,36.499,45.069,45.000,0.00,0.09,-272.77,-272.84,-16,535,-937,25.4,24.8,3.8,25.1,25.7,4.1,5.73,1.86,2.7,29.6
2016-06-27 00:21:00,0.0,1.89413,0.00043,395.117,0.059,1.0800,0.0056,139.999,45.000,31875.47646,1.91500,400.432,36.483,45.070,45.000,0.00,0.09,-272.78,-272.84,-16,535,-937,25.4,25.3,4.1,25.1,26.2,4.3,5.73,1.77,2.7,29.6
2016-06-27 00:22:00,0.0,1.89436,0.00038,395.066,0.050,1.0920,0.0064,140.000,45.000,31876.06603,1.91543,400.439,36.466,45.070,45.000,0.00,0.09,-272.77,-272.85,-15,535,-937,25.4,25.5,4.3,25.1,26.5,4.5,5.73,1.77,2.7,29.6
2016-06-27 00:23:00,0.0,1.89430,0.00037,395.102,0.070,1.0902,0.0061,140.001,45.000,31876.02551,1.91534,400.468,36.457,45.070,45.000,0.00,0.09,-272.78,-272.84,-16,535,-937,25.4,25.4,4.2,25.1,26.6,4.6,5.73,1.86,2.7,29.6
2016-06-27 00:24:00,0.0,1.89502,0.00059,395.193,0.126,1.0832,0.0127,140.000,45.000,31872.86239,1.91595,400.526,36.460,45.070,45.000,0.00,0.09,-272.77,-272.84,-15,535,-937,25.4,25.4,4.2,25.1,26.3,4.4,5.73,1.69,2.7,29.6
2016-06-27 00:25:00,0.0,1.89374,0.00051,395.003,0.062,1.1034,0.0047,140.000,45.000,31873.96678,1.91507,400.435,36.459,45.070,45.000,0.00,0.09,-272.78,-272.85,-16,535,-937,25.4,25.8,4.4,25.1,26.8,4.7,5.73,1.94,2.7,29.6
2016-06-27 00:26:00,0.0,1.89395,0.00045,395.066,0.142,1.0946,0.0124,139.998,45.000,31874.87303,1.91510,400.453,36.441,45.070,45.000,0.00,0.09,-272.77,-272.85,-15,535,-937,25.4,25.6,4.3,25.1,26.7,4.6,5.73,1.63,2.7,29.6
2016-06-27 00:27:00,0.0,1.89345,0.00047,395.041,0.071,1.0992,0.0057,140.001,45.000,31877.12986,1.91467,400.454,36.439,45.070,45.000,0.00,0.09,-272.78,-272.83,-16,535,-937,25.5,25.7,4.4,25.1,26.8,4.7,5.73,1.97,2.7,29.6
2016-06-27 00:28:00,0.0,1.89419,0.00042,395.236,0.130,1.0945,0.0083,140.002,45.000,31876.37521,1.91528,400.623,36.443,45.070,45.000,0.00,0.09,-272.78,-272.85,-15,535,-937,25.5,25.5,4.3,25.1,26.7,4.6,5.73,1.63,2.7,29.6
2016-06-27 00:29:00,0.0,1.89406,0.00060,395.061,0.138,1.1095,0.0102,140.000,45.000,31877.51916,1.91552,400.527,36.440,45.070,45.000,0.00,0.09,-272.79,-272.84,-16,535,-937,25.5,26.0,4.6,25.1,26.9,4.7,5.73,1.95,2.7,29.6
2016-06-27 00:30:00,0.0,1.89378,0.00041,395.532,0.166,1.1242,0.0077,139.999,45.000,31876.28067,1.91548,401.064,36.475,45.070,45.000,0.00,0.09,-272.77,-272.83,-15,535,-937,25.5,26.3,4.7,25.1,27.3,4.9,5.73,1.67,2.7,29.6
2016-06-27 00:31:00,0.0,1.89394,0.00049,395.809,0.114,1.1231,0.0066,140.001,45.000,31877.00314,1.91565,401.354,36.489,45.070,45.000,0.00,0.09,-272.79,-272.84,-16,535,-937,25.5,26.3,4.7,25.1,27.4,5.0,5.73,1.89,2.7,29.6
2016-06-27 00:32:00,0.0,1.89373,0.00038,395.678,0.179,1.1337,0.0127,140.002,45.000,31878.76859,1.91567,401.278,36.496,45.069,45.000,0.00,0.09,-272.78,-272.85,-15,535,-937,25.5,26.6,4.9,25.1,27.5,5.1,5.73,1.74,2.7,29.6
2016-06-27 00:33:00,0.0,1.89406,0.00047,395.764,0.120,1.1331,0.0101,139.998,45.000,31876.54928,1.91593,401.354,36.476,45.069,45.000,0.00,0.09,-272.77,-272.84,-16,535,-937,25.5,26.5,4.8,25.1,27.7,5.1,5.73,1.81,2.7,29.6
2016-06-27 00:34:00,0.0,1.89416,0.00033,395.974,0.060,1.1187,0.0070,139.998,45.000,31875.22124,1.91580,401.498,36.464,45.069,45.000,0.00,0.09,-272.78,-272.83,-15,535,-937,25.5,26.1,4.6,25.1,27.4,5.0,5.73,1.83,2.7,29.6
2016-06-27 00:35:00,0.0,1.89410,0.00032,395.982,0.111,1.1174,0.0077,140.000,45.000,31877.11554,1.91570,401.501,36.482,45.069,45.000,0.00,0.09,-272.78,-272.85,-16,535,-937,25.5,26.2,4.7,25.1,27.2,4.9,5.73,1.73,2.7,29.6
2016-06-27 00:36:00,0.0,1.89435,0.00037,395.809,0.109,1.1381,0.0072,139.999,45.000,31878.13531,1.91634,401.429,36.494,45.069,45.000,0.00,0.09,-272.79,-272.84,-14,535,-937,25.5,26.7,4.9,25.1,27.6,5.1,5.73,1.90,2.7,29.6
2016-06-27 00:37:00,0.0,1.89415,0.00035,395.834,0.073,1.1441,0.0057,139.998,45.000,31877.94866,1.91629,401.485,36.498,45.069,45.000,0.00,0.10,-272.78,-272.82,-16,535,-938,25.5,26.8,5.0,25.1,27.9,5.3,5.73,1.66,2.7,29.6
2016-06-27 00:38:00,0.0,1.89411,0.00052,395.824,0.165,1.1466,0.0091,139.999,45.000,31881.08415,1.91629,401.486,36.495,45.069,45.000,0.00,0.09,-272.79,-272.84,-15,535,-938,25.5,26.9,5.0,25.1,28.0,5.3,5.73,1.95,2.7,29.6
2016-06-27 00:39:00,0.0,1.90681,0.01205,396.492,0.525,1.1815,0.0488,139.997,45.000,31882.29028,1.92892,402.316,36.472,45.069,45.000,0.00,0.09,-272.79,-272.83,-16,535,-938,25.5,28.2,5.7,25.1,28.4,5.5,5.73,1.63,2.7,29.6
2016-06-27 00:40:00,0.0,1.92385,0.00110,397.231,0.114,1.2572,0.0054,139.999,45.000,31883.20234,1.94852,403.483,36.472,45.070,45.000,0.00,0.09,-272.78,-272.83,-15,535,-938,25.5,29.8,6.6,25.1,30.6,6.6,5.73,1.97,2.7,29.6
2016-06-27 00:41:00,0.0,1.92436,0.00037,397.221,0.102,1.2632,0.0090,139.999,45.000,31883.10662,1.94929,403.511,36.477,45.070,45.000,0.00,0.09,-272.75,-272.82,-16,535,-938,25.5,30.0,6.6,25.1,31.0,6.8,5.73,1.64,2.7,29.6
2016-06-27 00:42:00,0.0,1.92335,0.00039,397.267,0.067,1.2556,0.0085,139.999,45.000,31882.77388,1.94814,403.517,36.495,45.070,45.000,0.00,0.09,-272.77,-272.83,-15,535,-937,25.5,29.7,6.5,25.1,31.0,6.8,5.73,1.95,2.7,29.7
2016-06-27 00:43:00,0.0,1.92321,0.00035,397.200,0.070,1.2594,0.0046,140.001,45.000,31882.65638,1.94805,403.471,36.497,45.070,45.000,0.00,0.10,-272.79,-272.86,-16,535,-938,25.5,29.8,6.5,25.1,30.9,6.7,5.73,1.67,2.7,29.7
2016-06-27 00:44:00,0.0,1.92292,0.00047,396.960,0.105,1.2797,0.0098,139.997,45.000,31884.44305,1.94819,403.331,36.499,45.070,45.000,0.00,0.09,-272.78,-272.84,-15,535,-938,25.5,30.4,6.8,25.1,31.3,6.9,5.73,1.89,2.7,29.7
2016-06-27 00:45:00,0.0,1.92266,0.00048,396.888,0.067,1.2864,0.0043,139.998,45.000,31884.13676,1.94800,403.289,36.498,45.069,45.000,0.00,0.09,-272.78,-272.83,-16,535,-937,25.5,30.5,6.9,25.1,31.6,7.1,5.73,1.75,2.7,29.6
2016-06-27 00:46:00,0.0,1.92288,0.00037,396.957,0.072,1.3019,0.0059,139.997,45.000,31881.78750,1.94861,403.442,36.500,45.070,45.000,0.00,0.09,-272.81,-272.82,-15,535,-937,25.5,30.9,7.1,25.1,31.9,7.2,5.73,1.80,2.7,29.7
2016-06-27 00:47:00,0.0,1.92267,0.00066,396.971,0.056,1.2992,0.0043,139.998,45.000,31882.11905,1.94830,403.445,36.500,45.070,45.000,0.00,0.09,-272.78,-272.81,-15,535,-937,25.5,30.8,7.0,25.1,32.0,7.3,5.73,1.84,2.7,29.7
2016-06-27 00:48:00,0.0,1.92175,0.00067,396.849,0.051,1.3042,0.0053,140.001,45.000,31884.00998,1.94755,403.347,36.500,45.070,45.000,0.00,0.09,-272.79,-272.84,-15,535,-938,25.5,30.9,7.1,25.1,32.1,7.3,5.73,1.73,2.8,29.6
2016-06-27 00:49:00,0.0,1.92159,0.00055,396.829,0.082,1.2923,0.0082,140.000,45.000,31883.83373,1.94701,403.266,36.502,45.070,45.000,0.00,0.09,-272.79,-272.82,-15,535,-938,25.5,30.6,6.9,25.1,31.9,7.2,5.73,1.90,2.8,29.7
2016-06-27 00:50:00,0.0,1.92024,0.00147,396.599,0.087,1.3002,0.0052,140.000,45.000,31883.24208,1.94600,403.070,36.500,45.070,45.000,0.00,0.09,-272.79,-272.82,-16,535,-938,25.5,30.8,7.0,25.2,31.9,7.3,5.73,1.66,2.8,29.6
2016-06-27 00:51:00,0.0,1.91835,0.00057,396.637,0.048,1.2931,0.0024,140.000,45.000,31883.83940,1.94385,403.074,36.500,45.070,45.000,0.00,0.09,-272.78,-272.82,-15,535,-938,25.5,30.6,6.9,25.2,31.9,7.2,5.73,1.96,2.8,29.6
2016-06-27 00:52:00,0.0,1.91804,0.00041,396.454,0.085,1.3003,0.0062,139.999,45.000,31885.81018,1.94366,402.924,36.500,45.070,45.000,0.00,0.09,-272.79,-272.85,-16,535,-938,25.5,30.8,7.0,25.2,31.9,7.3,5.73,1.63,2.8,29.7
2016-06-27 00:53:00,0.0,1.91730,0.00069,396.465,0.073,1.2990,0.0068,140.000,45.000,31884.85799,1.94288,402.926,36.502,45.070,45.000,0.00,0.09,-272.77,-272.85,-15,535,-938,25.5,30.7,7.0,25.2,32.0,7.3,5.73,1.97,2.8,29.7
2016-06-27 00:54:00,0.0,1.91571,0.00052,396.613,0.057,1.2851,0.0051,139.999,45.000,31882.66356,1.94100,403.008,36.507,45.070,45.000,0.00,0.10,-272.76,-272.83,-16,535,-938,25.5,30.3,6.8,25.2,31.7,7.1,5.73,1.64,2.8,29.6
2016-06-27 00:55:00,0.0,1.91544,0.00101,396.419,0.063,1.2956,0.0042,140.000,45.000,31884.11596,1.94100,402.861,36.537,45.070,45.000,0.00,0.09,-272.78,-272.85,-15,535,-938,25.5,30.7,7.0,25.2,31.8,7.2,5.73,1.93,2.8,29.6
2016-06-27 00:56:00,0.0,1.91501,0.00066,396.434,0.079,1.2967,0.0028,140.002,45.000,31884.35640,1.94044,402.887,36.541,45.070,45.000,0.00,0.09,-272.78,-272.85,-16,535,-938,25.5,30.7,7.0,25.2,31.9,7.2,5.73,1.70,2.7,29.7
2016-06-27 00:57:00,0.0,1.91418,0.00065,396.354,0.072,1.3053,0.0048,139.999,45.000,31885.33350,1.93986,402.846,36.560,45.069,45.000,0.00,0.09,-272.77,-272.84,-15,535,-938,25.5,30.9,7.1,25.2,32.0,7.3,5.73,1.85,2.8,29.7
2016-06-27 00:58:00,0.0,1.91361,0.00037,396.374,0.109,1.3127,0.0126,140.001,45.000,31885.77866,1.93944,402.905,36.561,45.069,45.000,0.00,0.09,-272.78,-272.83,-16,535,-938,25.6,31.1,7.2,25.2,32.1,7.4,5.73,1.79,2.8,29.7
2016-06-27 00:59:00,0.0,1.91302,0.00042,396.358,0.100,1.3192,0.0090,140.001,45.000,31887.17784,1.93896,402.925,36.558,45.069,45.000,0.00,0.09,-272.78,-272.84,-15,535,-938,25.6,31.3,7.3,25.2,32.4,7.5,5.73,1.76,2.8,29.7
2016-06-27 01:00:00,0.0,1.91278,0.00048,396.282,0.093,1.3241,0.0051,140.001,45.000,31888.66554,1.93879,402.875,36.558,45.070,45.000,0.00,0.09,-272.78,-272.84,-16,535,-938,25.6,31.4,7.4,25.2,32.5,7.5,5.73,1.87,2.8,29.7
2016-06-27 01:01:00,0.0,1.91276,0.00057,396.383,0.084,1.3211,0.0071,139.998,45.000,31889.13470,1.93873,402.955,36.547,45.070,45.000,0.00,0.09,-272.76,-272.84,-14,535,-938,25.6,31.2,7.3,25.2,32.5,7.5,5.73,1.68,2.8,29.7
2016-06-27 01:02:00,0.0,1.91275,0.00034,396.426,0.060,1.3169,0.0061,140.000,45.000,31890.01595,1.93865,402.982,36.562,45.070,45.000,0.00,0.09,-272.78,-272.84,-16,536,-938,25.6,31.1,7.2,25.2,32.4,7.5,5.73,1.94,2.8,29.7
2016-06-27 01:03:00,0.0,1.91263,0.00039,396.287,0.124,1.3265,0.0097,139.999,45.000,31891.61093,1.93869,402.888,36.563,45.070,45.000,0.00,0.09,-272.78,-272.84,-14,535,-938,25.6,31.4,7.3,25.2,32.5,7.5,5.73,1.63,2.8,29.7
2016-06-27 01:04:00,0.0,1.91305,0.00047,396.444,0.059,1.3183,0.0041,140.000,45.000,31890.62847,1.93891,403.008,36.562,45.070,45.000,0.00,0.09,-272.77,-272.84,-16,535,-938,25.6,31.2,7.3,25.2,32.4,7.5,5.73,1.96,2.8,29.7
2016-06-27 01:05:00,0.0,1.91369,0.00039,396.329,0.063,1.3233,0.0042,140.002,45.000,31891.00114,1.93968,402.918,36.563,45.070,45.000,0.00,0.09,-272.78,-272.84,-14,535,-938,25.6,31.3,7.3,25.2,32.5,7.6,5.73,1.64,2.8,29.7
2016-06-27 01:06:00,0.0,1.91387,0.00039,396.252,0.048,1.3374,0.0057,139.998,45.000,31892.01321,1.94017,402.907,36.563,45.070,45.000,0.00,0.09,-272.78,-272.84,-16,535,-938,25.6,31.6,7.4,25.2,32.8,7.7,5.73,1.93,2.8,29.7
2016-06-27 01:07:00,0.0,1.91421,0.00039,396.309,0.081,1.3282,0.0056,139.997,45.000,31891.66395,1.94034,402.925,36.569,45.070,45.000,0.00,0.09,-272.77,-272.83,-15,536,-938,25.6,31.4,7.4,25.2,32.7,7.6,5.73,1.69,2.8,29.7
2016-06-27 01:08:00,0.0,1.91404,0.00066,396.181,0.103,1.3443,0.0069,140.001,45.000,31894.22272,1.94048,402.872,36.591,45.070,45.000,0.00,0.09,-272.77,-272.84,-16,535,-938,25.6,31.7,7.5,25.2,32.9,7.8,5.73,1.86,2.8,29.7
2016-06-27 01:09:00,0.0,1.91561,0.00036,396.341,0.053,1.3339,0.0052,139.998,45.000,31892.22267,1.94186,402.983,36.615,45.070,45.000,0.00,0.09,-272.78,-272.84,-15,535,-938,25.6,31.5,7.4,25.2,32.8,7.7,5.73,1.78,2.8,29.7
2016-06-27 01:10:00,0.0,1.91618,0.00043,396.297,0.119,1.3405,0.0120,139.998,45.000,31893.51554,1.94253,402.969,36.621,45.069,45.000,0.00,0.09,-272.77,-272.84,-16,535,-938,25.6,31.6,7.5,25.2,32.8,7.7,5.73,1.76,2.9,29.7
2016-06-27 01:11:00,0.0,1.91761,0.00049,396.491,0.042,1.3302,0.0077,139.997,45.000,31893.07079,1.94381,403.121,36.619,45.069,45.000,0.00,0.09,-272.77,-272.82,-15,536,-938,25.6,31.4,7.4,25.2,32.7,7.7,5.73,1.89,2.9,29.8
2016-06-27 01:12:00,0.0,1.91829,0.00053,396.445,0.095,1.3379,0.0093,139.996,45.000,31892.95331,1.94463,403.108,36.622,45.069,45.000,0.00,0.09,-272.78,-272.85,-16,536,-938,25.6,31.5,7.5,25.2,32.9,7.7,5.73,1.67,2.9,29.8
2016-06-27 01:13:00,0.0,1.91847,0.00042,396.479,0.061,1.3399,0.0074,139.997,45.000,31896.21436,1.94493,403.153,36.625,45.069,45.000,0.00,0.09,-272.77,-272.83,-15,536,-938,25.6,31.6,7.5,25.2,32.8,7.7,5.73,1.96,2.9,29.8
2016-06-27 01:14:00,0.0,1.91734,0.00052,396.499,0.068,1.3337,0.0071,139.998,45.000,31896.66643,1.94363,403.145,36.626,45.070,45.000,0.00,0.09,-272.77,-272.84,-16,535,-938,25.6,31.5,7.4,25.2,32.7,7.7,5.73,1.63,2.9,29.8
2016-06-27 01:15:00,0.0,1.91663,0.00048,396.476,0.057,1.3279,0.0056,139.999,45.000,31894.74699,1.94280,403.090,36.627,45.069,45.000,0.00,0.09,-272.79,-272.85,-15,536,-938,25.6,31.3,7.4,25.3,32.6,7.6,5.73,1.96,2.9,29.8
2016-06-27 01:16:00,0.0,1.91564,0.00088,396.384,0.035,1.3326,0.0042,139.998,45.000,31893.21734,1.94196,403.023,36.627,45.070,45.000,0.00,0.09,-272.79,-272.84,-16,536,-938,25.6,31.4,7.4,25.2,32.6,7.6,5.73,1.66,2.9,29.8
2016-06-27 01:17:00,0.0,1.91355,0.00074,396.286,0.053,1.3389,0.0055,139.998,45.000,31895.61926,1.93996,402.952,36.634,45.070,45.000,0.00,0.09,-272.75,-272.84,-15,536,-938,25.6,31.5,7.5,25.3,32.7,7.7,5.73,1.90,2.9,29.7
2016-06-27 01:18:00,0.0,1.91255,0.00064,396.207,0.097,1.3332,0.0058,140.001,45.000,31896.06967,1.93880,402.847,36.636,45.070,45.000,0.00,0.09,-272.75,-272.83,-16,536,-938,25.7,31.5,7.5,25.3,32.6,7.7,5.73,1.74,2.9,29.8
2016-06-27 01:19:00,0.0,1.91105,0.00051,396.107,0.104,1.3401,0.0154,140.000,45.000,31896.04990,1.93739,402.778,36.641,45.070,45.000,0.00,0.09,-272.78,-272.85,-15,536,-938,25.6,31.4,7.4,25.3,32.9,7.8,5.73,1.80,2.9,29.8
2016-06-27 01:20:00,0.0,1.91020,0.00076,396.083,0.075,1.3308,0.0128,139.999,45.000,31897.39980,1.93637,402.704,36.658,45.070,45.000,0.00,0.09,-272.78,-272.83,-16,536,-938,25.7,31.3,7.4,25.3,32.6,7.7,5.73,1.84,2.9,29.8
2016-06-27 01:21:00,0.0,1.90962,0.00029,396.134,0.070,1.3143,0.0060,139.999,45.000,31897.84312,1.93539,402.675,36.641,45.070,45.000,0.00,0.09,-272.77,-272.84,-15,536,-938,25.7,30.9,7.2,25.3,32.2,7.5,5.73,1.71,2.9,29.8
2016-06-27 01:22:00,0.0,1.90848,0.00048,395.911,0.089,1.3376,0.0109,139.997,45.000,31898.19532,1.93475,402.566,36.636,45.070,45.000,0.00,0.09,-272.78,-272.84,-16,536,-938,25.7,31.5,7.5,25.3,32.6,7.7,5.73,1.92,2.9,29.8
2016-06-27 01:23:00,0.0,1.90805,0.00059,396.000,0.081,1.3242,0.0105,139.997,45.000,31897.86467,1.93402,402.582,36.666,45.070,45.000,0.00,0.09,-272.78,-272.84,-15,536,-938,25.7,31.0,7.3,25.3,32.5,7.6,5.73,1.64,2.9,29.8
2016-06-27 01:24:00,0.0,1.90841,0.00036,396.100,0.080,1.3059,0.0082,139.997,45.000,31898.42891,1.93401,402.592,36.660,45.069,45.000,0.00,0.09,-272.78,-272.83,-15,536,-938,25.7,30.6,7.1,25.3,32.0,7.4,5.73,1.96,3.0,29.8
2016-06-27 01:25:00,0.0,1.90822,0.00049,395.952,0.075,1.3148,0.0074,139.999,45.000,31900.28153,1.93401,402.490,36.650,45.069,45.000,0.00,0.09,-272.77,-272.84,-15,536,-938,25.7,30.9,7.2,25.3,32.1,7.5,5.73,1.63,3.0,29.8
2016-06-27 01:26:00,0.0,1.90824,0.00031,396.052,0.058,1.3052,0.0070,140.001,45.000,31902.71097,1.93379,402.541,36.667,45.070,45.000,0.00,0.09,-272.78,-272.84,-15,536,-938,25.7,30.5,7.1,25.3,32.0,7.4,5.73,1.94,3.0,29.8
2016-06-27 01:27:00,0.0,1.90822,0.00037,396.070,0.075,1.3000,0.0061,139.999,45.000,31901.41822,1.93371,402.531,36.677,45.069,45.000,0.00,0.09,-272.77,-272.83,-15,536,-938,25.7,30.4,7.0,25.3,31.8,7.3,5.73,1.69,3.0,29.8
2016-06-27 01:28:00,0.0,1.90827,0.00031,395.965,0.072,1.3032,0.0070,139.999,45.000,31900.04944,1.93382,402.445,36.684,45.070,45.000,0.00,0.09,-272.77,-272.83,-15,536,-938,25.7,30.6,7.1,25.4,31.7,7.3,5.73,1.86,3.0,29.8
2016-06-27 01:29:00,0.0,1.90846,0.00042,396.010,0.087,1.2935,0.0108,140.000,45.000,31899.98595,1.93379,402.437,36.688,45.069,45.000,0.00,0.09,-272.78,-272.84,-15,536,-938,25.7,30.2,6.9,25.4,31.7,7.3,5.73,1.78,3.0,29.8
2016-06-27 01:30:00,0.0,1.90853,0.00041,396.006,0.067,1.2842,0.0080,139.997,45.000,31900.90232,1.93369,402.384,36.689,45.069,45.000,0.00,0.09,-272.77,-272.84,-15,536,-938,25.7,30.0,6.8,25.4,31.3,7.1,5.73,1.76,3.0,29.9
2016-06-27 01:31:00,0.0,1.90805,0.00037,395.864,0.082,1.3004,0.0121,140.000,45.000,31902.80918,1.93353,402.322,36.701,45.069,45.000,0.00,0.09,-272.77,-272.83,-16,536,-938,25.7,30.5,7.0,25.4,31.5,7.3,5.73,1.88,3.0,29.9
2016-06-27 01:32:00,0.0,1.90790,0.00053,395.861,0.146,1.2954,0.0124,139.999,45.000,31903.05876,1.93327,402.298,36.706,45.070,45.000,0.00,0.09,-272.78,-272.84,-15,536,-938,25.7,30.4,7.0,25.4,31.6,7.3,5.73,1.67,3.0,29.8
2016-06-27 01:33:00,0.0,1.90779,0.00049,395.851,0.071,1.2985,0.0130,140.000,45.000,31903.51065,1.93320,402.301,36.726,45.069,45.000,0.00,0.09,-272.79,-272.85,-16,536,-938,25.7,30.3,7.0,25.4,31.7,7.3,5.73,1.94,3.0,29.8
2016-06-27 01:34:00,0.0,1.90802,0.00043,395.882,0.071,1.2929,0.0047,140.001,45.000,31904.76813,1.93336,402.301,36.711,45.069,45.000,0.00,0.09,-272.77,-272.84,-15,536,-938,25.8,30.2,7.0,25.4,31.4,7.2,5.73,1.63,3.0,29.8
2016-06-27 01:35:00,0.0,1.90794,0.00037,395.922,0.063,1.2874,0.0107,140.000,45.000,31906.05137,1.93317,402.318,36.693,45.069,45.000,0.00,0.09,-272.78,-272.84,-16,536,-938,25.8,30.0,6.9,25.4,31.4,7.2,5.73,1.97,3.0,29.8
2016-06-27 01:36:00,0.0,1.90793,0.00041,395.972,0.073,1.2784,0.0083,139.997,45.000,31906.27318,1.93293,402.322,36.700,45.069,45.000,0.00,0.09,-272.78,-272.84,-15,536,-938,25.8,29.7,6.8,25.4,31.2,7.1,5.73,1.64,3.0,29.8
2016-06-27 01:37:00,0.0,1.90843,0.00054,395.797,0.059,1.2823,0.0100,139.997,45.000,31907.01367,1.93350,402.162,36.692,45.070,45.000,0.00,0.09,-272.78,-272.84,-16,536,-938,25.8,30.0,6.8,25.4,31.1,7.0,5.73,1.92,3.0,29.8
2016-06-27 01:38:00,0.0,1.90906,0.00038,395.798,0.096,1.2843,0.0086,139.998,45.000,31905.25471,1.93422,402.173,36.690,45.070,45.000,0.00,0.09,-272.77,-272.83,-15,536,-938,25.8,29.9,6.8,25.4,31.2,7.1,5.73,1.70,3.1,29.8
2016-06-27 01:39:00,0.0,1.90987,0.00047,396.050,0.074,1.2623,0.0091,140.001,45.000,31905.18171,1.93460,402.315,36.696,45.070,45.000,0.00,0.09,-272.78,-272.84,-16,536,-938,25.8,29.3,6.5,25.4,30.8,6.9,5.73,1.86,3.0,29.8
2016-06-27 01:40:00,0.0,1.90992,0.00058,396.011,0.072,1.2649,0.0056,139.999,45.000,31904.67178,1.93464,402.289,36.704,45.070,45.000,0.00,0.09,-272.78,-272.84,-15,536,-938,25.8,29.5,6.6,25.4,30.7,6.9,5.73,1.78,3.0,29.8
2016-06-27 01:41:00,0.0,1.90984,0.00049,395.940,0.098,1.2686,0.0094,140.002,45.000,31906.40724,1.93471,402.239,36.699,45.070,45.000,0.00,0.09,-272.77,-272.83,-16,537,-938,25.8,29.5,6.7,25.4,30.7,6.9,5.73,1.76,3.1,29.9
2016-06-27 01:42:00,0.0,1.90978,0.00034,395.774,0.067,1.2792,0.0066,139.999,45.000,31906.51090,1.93482,402.123,36.701,45.070,45.000,0.00,0.09,-272.78,-272.84,-15,536,-938,25.8,29.8,6.8,25.4,31.0,7.0,5.73,1.88,3.1,29.9
2016-06-27 01:43:00,0.0,1.91000,0.00061,395.878,0.079,1.2698,0.0126,139.999,45.000,31906.43343,1.93486,402.182,36.727,45.070,45.000,0.00,0.09,-272.77,-272.84,-16,536,-938,25.8,29.5,6.6,25.4,30.9,7.0,5.73,1.67,3.1,29.8
2016-06-27 01:44:00,0.0,1.91047,0.00040,395.928,0.068,1.2666,0.0068,139.998,45.000,31906.49359,1.93529,402.212,36.750,45.070,45.000,0.00,0.09,-272.78,-272.83,-14,536,-938,25.8,29.3,6.6,25.4,30.7,6.9,5.73,1.95,3.1,29.8
2016-06-27 01:45:00,0.0,1.91027,0.00037,395.973,0.088,1.2563,0.0095,139.998,45.000,31905.95442,1.93487,402.206,36.750,45.069,45.000,0.00,0.09,-272.77,-272.83,-16,537,-938,25.8,29.2,6.5,25.4,30.4,6.8,5.73,1.63,3.1,29.9
2016-06-27 01:46:00,0.0,1.91066,0.00050,396.057,0.147,1.2534,0.0137,140.000,45.000,31905.81935,1.93521,402.276,36.750,45.069,45.000,0.00,0.09,-272.79,-272.85,-14,537,-938,25.8,29.0,6.4,25.4,30.4,6.8,5.73,1.96,3.1,29.8